| time (UTC) | temp F | wind direction | speed MPH | gust MPH | rain 1hr in | rain 24hr in | rain mn in | humidity % | barometer mb |
| 20260507214507 | 48 | 360 | 3.0 | 6.0 | 0.00 | 0.00 | 0.00 | 66 | 1014.8 |
| 20260507213004 | 47 | 344 | 4.0 | 9.0 | 0.00 | 0.00 | 0.00 | 67 | 1014.6 |
| 20260507211502 | 47 | 5 | 3.0 | 9.0 | 0.00 | 0.00 | 0.00 | 67 | 1014.7 |
| 20260507210001 | 47 | 17 | 2.0 | 6.0 | 0.00 | 0.00 | 0.00 | 67 | 1014.7 |
| 20260507204601 | 46 | 323 | 2.0 | 6.0 | 0.00 | 0.00 | 0.00 | 68 | 1014.6 |
| 20260507203110 | 45 | 343 | 2.0 | 5.0 | 0.00 | 0.00 | 0.00 | 69 | 1014.5 |
| 20260507201607 | 46 | 360 | 2.0 | 5.0 | 0.00 | 0.00 | 0.00 | 68 | 1014.5 |
| 20260507200108 | 45 | 340 | 3.0 | 5.0 | 0.00 | 0.00 | 0.00 | 68 | 1014.5 |
| 20260507194554 | 45 | 325 | 3.0 | 6.0 | 0.00 | 0.00 | 0.00 | 67 | 1014.5 |
| 20260507193057 | 46 | 355 | 3.0 | 5.0 | 0.00 | 0.00 | 0.00 | 67 | 1014.5 |
| 20260507191555 | 45 | 346 | 2.0 | 5.0 | 0.00 | 0.00 | 0.00 | 67 | 1014.5 |
| 20260507190058 | 45 | 351 | 1.0 | 3.0 | 0.00 | 0.00 | 0.00 | 69 | 1014.5 |
| 20260507184557 | 45 | 350 | 0.0 | 2.0 | 0.00 | 0.00 | 0.00 | 67 | 1014.6 |
| 20260507183050 | 46 | 350 | 0.0 | 3.0 | 0.00 | 0.00 | 0.00 | 65 | 1014.4 |
| 20260507181547 | 46 | 5 | 2.0 | 5.0 | 0.00 | 0.00 | 0.00 | 64 | 1014.3 |
| 20260507180049 | 46 | 360 | 2.0 | 5.0 | 0.00 | 0.00 | 0.00 | 64 | 1014.3 |
| 20260507174546 | 46 | 5 | 3.0 | 5.0 | 0.00 | 0.00 | 0.00 | 65 | 1014.4 |
| 20260507173042 | 45 | 292 | 0.0 | 3.0 | 0.00 | 0.00 | 0.00 | 66 | 1014.7 |
| 20260507171542 | 45 | 292 | 1.0 | 4.0 | 0.00 | 0.00 | 0.00 | 66 | 1014.7 |
| 20260507170040 | 45 | 281 | 0.0 | 3.0 | 0.00 | 0.00 | 0.00 | 66 | 1014.8 |
| 20260507164548 | 46 | 281 | 0.0 | 3.0 | 0.00 | 0.00 | 0.00 | 65 | 1014.9 |
| 20260507163036 | 46 | 278 | 1.0 | 3.0 | 0.00 | 0.00 | 0.00 | 68 | 1015.0 |
| 20260507161534 | 44 | 277 | 1.0 | 2.0 | 0.00 | 0.00 | 0.00 | 69 | 1015.1 |
| 20260507160033 | 44 | 276 | 0.0 | 0.0 | 0.00 | 0.00 | 0.00 | 69 | 1015.3 |
| 20260507154531 | 45 | 276 | 0.0 | 0.0 | 0.00 | 0.00 | 0.00 | 67 | 1015.4 |
| 20260507153026 | 46 | 276 | 0.0 | 0.0 | 0.00 | 0.00 | 0.00 | 65 | 1015.5 |
| 20260507151523 | 46 | 276 | 0.0 | 0.0 | 0.00 | 0.00 | 0.00 | 62 | 1015.5 |
| 20260507150025 | 47 | 276 | 0.0 | 3.0 | 0.00 | 0.00 | 0.00 | 61 | 1015.6 |
| 20260507144524 | 47 | 273 | 0.0 | 2.0 | 0.00 | 0.00 | 0.00 | 60 | 1015.7 |
| 20260507143016 | 47 | 275 | 0.0 | 2.0 | 0.00 | 0.00 | 0.00 | 59 | 1015.9 |
| 20260507141515 | 48 | 275 | 0.0 | 1.0 | 0.00 | 0.00 | 0.00 | 58 | 1016.0 |
| 20260507140012 | 48 | 275 | 0.0 | 0.0 | 0.00 | 0.00 | 0.00 | 57 | 1015.8 |
| 20260507134512 | 49 | 275 | 0.0 | 3.0 | 0.00 | 0.00 | 0.00 | 55 | 1016.0 |
| 20260507133010 | 50 | 273 | 0.0 | 3.0 | 0.00 | 0.00 | 0.00 | 54 | 1015.8 |
| 20260507131509 | 50 | 272 | 2.0 | 6.0 | 0.00 | 0.00 | 0.00 | 53 | 1015.9 |
| 20260507130008 | 50 | 267 | 1.0 | 9.0 | 0.00 | 0.00 | 0.00 | 53 | 1015.7 |
| 20260507124510 | 51 | 290 | 1.0 | 4.0 | 0.00 | 0.00 | 0.00 | 52 | 1015.7 |
| 20260507123009 | 51 | 300 | 1.0 | 5.0 | 0.00 | 0.00 | 0.00 | 50 | 1015.7 |
| 20260507121507 | 51 | 294 | 0.0 | 3.0 | 0.00 | 0.00 | 0.00 | 49 | 1015.8 |
| 20260507120007 | 52 | 315 | 1.0 | 8.0 | 0.00 | 0.00 | 0.00 | 49 | 1016.0 |
| 20260507114509 | 52 | 290 | 1.0 | 11.0 | 0.00 | 0.00 | 0.00 | 48 | 1015.9 |
| 20260507113012 | 52 | 252 | 1.0 | 4.0 | 0.00 | 0.00 | 0.00 | 48 | 1015.9 |
| 20260507111506 | 52 | 227 | 2.0 | 7.0 | 0.00 | 0.00 | 0.00 | 47 | 1016.0 |
| 20260507110003 | 52 | 294 | 4.0 | 11.0 | 0.00 | 0.00 | 0.00 | 47 | 1015.8 |
| 20260507104503 | 53 | 275 | 1.0 | 11.0 | 0.00 | 0.00 | 0.00 | 46 | 1015.8 |
| 20260507103100 | 53 | 246 | 3.0 | 10.0 | 0.00 | 0.00 | 0.00 | 46 | 1015.7 |
| 20260507101612 | 53 | 259 | 3.0 | 10.0 | 0.00 | 0.00 | 0.00 | 45 | 1015.5 |
| 20260507094601 | 54 | 214 | 3.0 | 10.0 | 0.00 | 0.00 | 0.00 | 43 | 1015.0 |
| 20260507093054 | 54 | 229 | 4.0 | 10.0 | 0.00 | 0.00 | 0.00 | 43 | 1015.0 |
| 20260507091552 | 54 | 278 | 1.0 | 12.0 | 0.00 | 0.00 | 0.00 | 43 | 1014.8 |
| 20260507090051 | 55 | 288 | 4.0 | 9.0 | 0.00 | 0.00 | 0.00 | 42 | 1014.8 |
| 20260507084557 | 55 | 233 | 3.0 | 10.0 | 0.00 | 0.00 | 0.00 | 42 | 1014.5 |
| 20260507083050 | 55 | 246 | 3.0 | 11.0 | 0.00 | 0.00 | 0.00 | 42 | 1014.2 |
| 20260507081547 | 55 | 240 | 4.0 | 10.0 | 0.00 | 0.00 | 0.00 | 41 | 1013.9 |
| 20260507080050 | 56 | 225 | 4.0 | 9.0 | 0.00 | 0.00 | 0.00 | 41 | 1013.6 |
| 20260507074543 | 56 | 227 | 4.0 | 13.0 | 0.00 | 0.00 | 0.00 | 40 | 1013.3 |
| 20260507073043 | 56 | 270 | 5.0 | 13.0 | 0.00 | 0.00 | 0.00 | 39 | 1013.3 |
| 20260507071539 | 57 | 245 | 2.0 | 14.0 | 0.00 | 0.00 | 0.00 | 38 | 1013.2 |
| 20260507070039 | 57 | 257 | 6.0 | 16.0 | 0.00 | 0.00 | 0.00 | 37 | 1013.1 |
| 20260507064538 | 58 | 184 | 6.0 | 22.0 | 0.00 | 0.00 | 0.00 | 37 | 1012.7 |
| 20260507063035 | 59 | 216 | 4.0 | 19.0 | 0.00 | 0.00 | 0.00 | 36 | 1012.6 |
| 20260507061534 | 60 | 221 | 7.0 | 24.0 | 0.00 | 0.00 | 0.00 | 34 | 1012.3 |
| 20260507060033 | 61 | 250 | 4.0 | 14.0 | 0.00 | 0.00 | 0.00 | 34 | 1012.2 |
| 20260507054537 | 61 | 225 | 7.0 | 18.0 | 0.00 | 0.00 | 0.00 | 34 | 1012.2 |
| 20260507053032 | 62 | 277 | 6.0 | 17.0 | 0.00 | 0.00 | 0.00 | 32 | 1012.1 |
| 20260507051532 | 62 | 262 | 7.0 | 19.0 | 0.00 | 0.00 | 0.00 | 31 | 1011.9 |
| 20260507050029 | 62 | 235 | 4.0 | 16.0 | 0.00 | 0.00 | 0.00 | 32 | 1011.7 |
| 20260507044528 | 63 | 223 | 5.0 | 18.0 | 0.00 | 0.00 | 0.00 | 30 | 1011.6 |
| 20260507043026 | 64 | 232 | 6.0 | 15.0 | 0.00 | 0.00 | 0.00 | 29 | 1011.4 |
| 20260507041524 | 63 | 200 | 7.0 | 17.0 | 0.00 | 0.00 | 0.00 | 29 | 1011.2 |
| 20260507040023 | 64 | 260 | 9.0 | 18.0 | 0.00 | 0.00 | 0.00 | 28 | 1010.9 |
| 20260507034623 | 64 | 253 | 5.0 | 16.0 | 0.00 | 0.00 | 0.00 | 28 | 1010.8 |
| 20260507033024 | 64 | 248 | 4.0 | 15.0 | 0.00 | 0.00 | 0.00 | 28 | 1010.8 |
| 20260507031521 | 63 | 311 | 6.0 | 21.0 | 0.00 | 0.00 | 0.00 | 28 | 1010.7 |
| 20260507030021 | 64 | 227 | 4.0 | 18.0 | 0.00 | 0.00 | 0.00 | 28 | 1010.6 |
| 20260507024519 | 64 | 210 | 7.0 | 16.0 | 0.00 | 0.00 | 0.00 | 27 | 1010.6 |
| 20260507023118 | 63 | 195 | 6.0 | 15.0 | 0.00 | 0.00 | 0.00 | 30 | 1010.8 |
| 20260507021517 | 63 | 192 | 5.0 | 18.0 | 0.00 | 0.00 | 0.00 | 29 | 1011.0 |
| 20260507020016 | 64 | 219 | 8.0 | 19.0 | 0.00 | 0.00 | 0.00 | 29 | 1011.0 |
| 20260507014523 | 64 | 215 | 5.0 | 15.0 | 0.00 | 0.00 | 0.00 | 31 | 1010.8 |
| 20260507013025 | 62 | 206 | 7.0 | 21.0 | 0.00 | 0.00 | 0.00 | 47 | 1010.9 |
| 20260507011513 | 60 | 260 | 4.0 | 16.0 | 0.00 | 0.00 | 0.00 | 53 | 1010.7 |
| 20260507010013 | 59 | 310 | 7.0 | 17.0 | 0.00 | 0.00 | 0.00 | 55 | 1010.7 |
| 20260507004509 | 61 | 215 | 5.0 | 22.0 | 0.00 | 0.00 | 0.00 | 55 | 1010.8 |
| 20260507003007 | 64 | 212 | 1.0 | 4.0 | 0.00 | 0.00 | 0.00 | 57 | 1010.2 |
| 20260507001509 | 64 | 291 | 3.0 | 8.0 | 0.00 | 0.00 | 0.00 | 57 | 1010.2 |
| 20260507000003 | 64 | 291 | 5.0 | 9.0 | 0.00 | 0.00 | 0.00 | 57 | 1010.3 |
| 20260506234500 | 63 | 315 | 3.0 | 8.0 | 0.00 | 0.00 | 0.00 | 57 | 1010.2 |
| 20260506233110 | 62 | 299 | 3.0 | 10.0 | 0.00 | 0.00 | 0.00 | 61 | 1010.2 |
| 20260506231559 | 60 | 297 | 4.0 | 8.0 | 0.00 | 0.00 | 0.00 | 64 | 1010.3 |
| 20260506230052 | 59 | 22 | 3.0 | 8.0 | 0.00 | 0.00 | 0.00 | 67 | 1010.3 |
| 20260506224545 | 58 | 329 | 2.0 | 10.0 | 0.00 | 0.00 | 0.00 | 68 | 1010.3 |
| 20260506223047 | 57 | 39 | 5.0 | 9.0 | 0.00 | 0.00 | 0.00 | 68 | 1010.2 |
| 20260506221542 | 55 | 330 | 4.0 | 9.0 | 0.00 | 0.00 | 0.00 | 72 | 1010.2 |
| 20260506220041 | 54 | 345 | 4.0 | 8.0 | 0.00 | 0.00 | 0.00 | 75 | 1010.1 |